This demonstration page uses our WeatherBlox Daily Observations layout. Learn more.

Left ArrowRight Arrow

Hourly Observations for October 10, 2018

Temp ( °F °C ) Dew Point ( °F °C ) Humidity (%) Winds ( mph kmh ) Pressure ( in mb ) Visibility ( mi km ) Precip ( " mm )
12:53 am 00:53 Cloudy with Mist and Fog 42 5.6 40 4.4 92 92 NNW 16 26 29.79 1009 5 8 0.00 0.00
1:26 am 01:26 Cloudy with Mist and Fog 41 5 39 4 93 93 NNW 13 20 29.80 1009 2 3 0.00 0.00
1:35 am 01:35 Cloudy with Mist and Fog 41 5 40 4.4 96 96 NNW 15 24 29.80 1009 2 3 0.00 0.00
1:50 am 01:50 Cloudy with Mist and Fog 41 5 39 4 93 93 NNW 15 24 29.80 1009 2 3 0.00 0.00
1:53 am 01:53 Cloudy with Mist and Fog 41 5 40 4.4 96 96 NNW 14 22 29.80 1009 2 3 0.00 0.00
2:07 am 02:07 Cloudy with Mist and Fog 41 5 39 4 93 93 NNW 14 22 29.80 1009 2 3 0.00 0.00
2:53 am 02:53 Cloudy with Mist and Fog 41 5 40 4.4 96 96 NW 16 26 29.81 1010 2 3 0.00 0.00
3:04 am 03:04 Cloudy with Mist and Fog 39 4 39 4 100 100 NW 17 28 29.85 1011 2 3 0.00 0.00
3:16 am 03:16 Cloudy with Mist and Fog 39 4 37 3 93 93 NW 17 28 29.85 1011 3 4 0.00 0.00
3:23 am 03:23 Cloudy with Mist and Fog 39 3.9 38 3.3 96 96 NW 14 22 29.85 1011 4 6 0.00 0.00
3:53 am 03:53 Cloudy with Mist and Fog 39 3.9 38 3.3 96 96 NW 14 22 29.82 1010 3 5 0.00 0.00
4:02 am 04:02 Cloudy with Mist and Fog 39 4 37 3 93 93 NW 16 26 29.85 1011 3 5 0.00 0.00
4:53 am 04:53 Cloudy with Mist and Fog 38 3.3 37 2.8 97 97 NW 17 28 29.85 1011 4 6 0.00 0.00
5:53 am 05:53 Cloudy 38 3.3 37 2.8 97 97 NW 17 28 29.84 1011 10 16 0.00 0.00
6:53 am 06:53 Cloudy 38 3.3 36 2.2 93 93 NNW 17 28 29.85 1011 10 16 0.00 0.00
7:53 am 07:53 Cloudy 37 2.8 35 1.7 93 93 NW 16 26 29.87 1011 10 16 0.00 0.00
8:53 am 08:53 Cloudy 38 3.3 35 1.7 89 89 NW 21 33 29.90 1012 10 16 0.00 0.00
9:30 am 09:30 Cloudy 38 3.3 35 1.7 89 89 NW 20 31 29.94 1014 10 16 0.00 0.00
9:53 am 09:53 Cloudy 38 3.3 34 1.1 86 86 NW 23 37 29.93 1013 10 16 0.00 0.00
10:07 am 10:07 Cloudy 39 3.9 34 1.1 82 82 NW 18 30 29.97 1015 10 16 0.00 0.00
10:32 am 10:32 Cloudy 39 4 34 1 81 81 NW 18 30 29.97 1015 10 16 0.00 0.00
10:53 am 10:53 Cloudy 39 3.9 34 1.1 82 82 NW 21 33 29.94 1014 10 16 0.00 0.00
11:07 am 11:07 Cloudy 39 4 34 1 81 81 NW 23 37 29.97 1015 10 16 0.00 0.00
11:53 am 11:53 Cloudy 41 5 35 1.7 79 79 NW 20 31 29.94 1014 10 16 0.00 0.00
12:53 pm 12:53 Cloudy 44 6.7 35 1.7 71 71 NW 18 30 29.95 1014 10 16 0.00 0.00
1:53 pm 13:53 Cloudy 44 6.7 34 1.1 68 68 NW 21 33 29.96 1014 10 16 0.00 0.00
2:53 pm 14:53 Cloudy 45 7.2 34 1.1 66 66 NW 20 31 29.97 1015 10 16 0.00 0.00
3:53 pm 15:53 Cloudy 45 7.2 34 1.1 66 66 WNW 18 30 29.98 1015 10 16 0.00 0.00
4:53 pm 16:53 Cloudy 45 7.2 33 0.6 63 63 NNW 16 26 29.99 1016 10 16 0.00 0.00
5:07 pm 17:07 Cloudy 45 7.2 33 0.6 63 63 NW 16 26 30.00 1016 10 16 0.00 0.00
5:53 pm 17:53 Cloudy 44 6.7 33 0.6 65 65 NNW 17 28 30.01 1016 10 16 0.00 0.00
6:53 pm 18:53 Cloudy 42 5.6 32 0 68 68 NNW 20 31 30.04 1017 10 16 0.00 0.00
7:02 pm 19:02 Cloudy 43 6 34 1 71 71 NNW 14 22 30.06 1018 10 16 0.00 0.00
7:53 pm 19:53 Cloudy 41 5 33 0.6 73 73 NNW 13 20 30.08 1019 10 16 0.00 0.00
8:53 pm 20:53 Cloudy 39 3.9 32 0 76 76 NNW 16 26 30.12 1020 10 16 0.00 0.00
9:53 pm 21:53 Cloudy 39 3.9 31 -0.6 73 73 NW 13 20 30.14 1021 10 16 0.00 0.00
10:06 pm 22:06 Cloudy 39 3.9 32 0 76 76 NW 9 15 30.15 1021 10 16 0.00 0.00
10:53 pm 22:53 Mostly Cloudy 37 2.8 31 -0.6 79 79 NNW 9 15 30.16 1021 10 16 0.00 0.00
11:53 pm 23:53 Clear 34 1.1 30 -1.1 85 85 NW 7 11 30.18 1022 10 16 0.00 0.00

Powered by AerisWeather